カタログに戻る

FENGYUN 1C DEB

運用中SSO
NORAD 35171·DEBRIS·🇨🇳 China

打ち上げ May 10, 1999 から Taiyuan Satellite Launch Center

Loading…

次のパス (今後24時間)

TLE

最新Source: Space-Track

元期: Sep 14, 2026, 21:06 UTC

1 35171U 99025DNB 26257.87984598  .00001471  00000-0  10210-2 0  9991
2 35171  99.0264  48.4133 0135116 281.4592  77.1422 13.96185278924109

AllMySatでFENGYUN 1C DEBをリアルタイム追跡

Download on the App Store